This is the latest recevied weather packets stored in our database for station/object N4DWK. If no packets are shown the sender has not sent any weather packets the latest 10 day(s).
| Time | Temp. | Humidity | Pressure | Rain* | Wind** | Luminosity | Snow |
|---|---|---|---|---|---|---|---|
| 1788543306 | 35.56° C | 61% | 1013.5 hPa | 0 mm | - | 596 W/m² | - |
| 1788543006 | 35.56° C | 60% | 1013.6 hPa | 0 mm | - | 582 W/m² | - |
| 1788542706 | 35.56° C | 61% | 1013.6 hPa | 0 mm | - | 571 W/m² | - |
| 1788542406 | 35° C | 60% | 1013.6 hPa | 0 mm | - | 571 W/m² | - |
| 1788542107 | 35° C | 61% | 1013.5 hPa | 0 mm | - | 568 W/m² | - |
| 1788541807 | 33.89° C | 61% | 1013.5 hPa | 0 mm | - | 568 W/m² | - |
| 1788541506 | 34.44° C | 62% | 1013.5 hPa | 0 mm | - | 568 W/m² | - |
| 1788541207 | 33.89° C | 62% | 1013.5 hPa | 0 mm | - | 318 W/m² | - |
| 1788540907 | 33.89° C | 61% | 1013.6 hPa | 0 mm | - | 534 W/m² | - |
| 1788540607 | 33.89° C | 62% | 1013.6 hPa | 0 mm | - | 67 W/m² | - |
| 1788540306 | 33.89° C | 61% | 1013.6 hPa | 0 mm | - | 70 W/m² | - |
| 1788540007 | 33.89° C | 63% | 1013.6 hPa | 0 mm | - | 65 W/m² | - |
| 1788539706 | 33.33° C | 65% | 1013.6 hPa | 0 mm | - | 81 W/m² | - |
| 1788539406 | 33.33° C | 64% | 1013.8 hPa | 0 mm | - | 63 W/m² | - |
| 1788539107 | 33.33° C | 65% | 1013.9 hPa | 0 mm | - | 90 W/m² | - |
| 1788538806 | 33.33° C | 65% | 1013.9 hPa | 0 mm | - | 62 W/m² | - |
| 1788538506 | 33.33° C | 67% | 1013.9 hPa | 0 mm | - | 60 W/m² | - |
| 1788538234 | 33.33° C | 65% | 1013.9 hPa | 0 mm | - | 77 W/m² | - |
| 1788537906 | 33.33° C | 66% | 1013.9 hPa | 0 mm | - | 90 W/m² | - |
| 1788537606 | 33.33° C | 65% | 1014.1 hPa | 0 mm | - | 77 W/m² | - |
| 1788537306 | 33.33° C | 66% | 1014.1 hPa | 0 mm | - | 105 W/m² | - |
| 1788537006 | 33.33° C | 68% | 1014.2 hPa | 0 mm | - | 104 W/m² | - |
| 1788536707 | 32.78° C | 66% | 1014.3 hPa | 0 mm | - | 153 W/m² | - |
| 1788536406 | 32.78° C | 67% | 1014.2 hPa | 0 mm | - | 93 W/m² | - |
| 1788536107 | 32.78° C | 67% | 1014.1 hPa | 0 mm | - | 54 W/m² | - |
* Rain latest hour (hover to see other rain measurements)
** Current wind speed in m/s (hover to see current wind gust speed)